www.pogodaiklimat.ru

Погода и климат >> Архив погоды >> Япония >> Ирако


ПОГОДА в Ирако

  • Прогноз погоды в Ирако
  • Монитор погоды в Ирако

АРХИВ ПОГОДЫ в Ирако

Время (UTC), дата Ветер
(напр.,м/с)
 
Видим.   Явления Облачность Т
(С)
Тd
(С)
f
(%)
Тe
(С)
Тes
(С)
Комфортность P
(гПа)
Po
(гПа)
Тmin
(С)
Tmax
(С)
R
(мм)
R24
(мм)
S
(см)
22 11.06 СВ 2 20 км н/о +18.9 +16.7 87 +21 +21 комфорт 1007.5 1006.6
23 11.06 СВ 3 20 км н/о +19.5 +17.3 87 +22 +22 комфорт 1007.8 1006.9
00 12.06 СВ 3 20 км н/о +20.6 +18.2 86 +25 +25 комфорт 1007.8 1006.9 +17.7 4
01 12.06 В 4 20 км в посл. час дождь н/о +21.5 +18.1 81 +26 +26 душно 1007.7 1006.8
02 12.06 В 3 20 км н/о +22.8 +18.1 75 +28 +28 душно 1007.8 1006.9
03 12.06 ЮВ 3 20 км {дождь} н/о +22.0 +17.2 74 +26 +26 душно 1007.4 1006.5
04 12.06 Ю 4 20 км н/о +21.9 +17.5 76 +26 +26 душно 1007.3 1006.4
05 12.06 Ю 4 20 км н/о +23.7 +17.9 70 +28 +28 душно 1006.8 1005.9
06 12.06 Ю 3 20 км {дождь} н/о +24.2 +18.2 69 +29 +29 душно 1006.9 1006.0 0.0
07 12.06 Ю 4 20 км н/о +23.8 +18.5 72 +28 +28 душно 1006.9 1006.0
08 12.06 Ю 4 20 км н/о +23.3 +18.0 72 +29 +29 душно 1006.7 1005.8
09 12.06 Ю 3 20 км н/о +22.5 +18.3 77 +28 +28 душно 1007.3 1006.4
10 12.06 ЮВ 2 20 км н/о +21.7 +18.1 80 +26 +26 душно 1008.3 1007.4
11 12.06 СВ 4 20 км н/о +20.1 +16.9 82 +23 +23 комфорт 1009.1 1008.2
12 12.06 СВ 3 20 км слаб. дождь н/о +19.8 +16.1 79 +23 +23 комфорт 1009.7 1008.8 +24.9 0.0
13 12.06 В 3 20 км в посл. час дождь н/о +18.5 +16.5 88 +19 +19 1010.3 1009.4
14 12.06 СВ 2 20 км н/о +18.4 +15.8 85 +19 +19 1010.3 1009.4
15 12.06 СВ 3 17 км {дождь} н/о +18.5 +16.7 89 +20 +20 1010.6 1009.7
16 12.06 С 1 16 км н/о +18.9 +17.2 90 +22 +22 комфорт 1010.3 1009.4
17 12.06 СВ 3 16 км н/о +19.0 +16.4 85 +21 +21 комфорт 1010.3 1009.4
18 12.06 СВ 2 16 км {дождь} н/о +18.5 +17.0 91 +20 +20 1010.5 1009.6 0.0
19 12.06 С 2 20 км н/о +18.6 +16.9 90 +20 +20 1010.8 1009.9
20 12.06 СВ 2 20 км н/о +18.8 +17.1 90 +21 +21 комфорт 1011.1 1010.2
21 12.06 СВ 2 20 км н/о +19.2 +17.2 88 +22 +22 комфорт 1011.6 1010.7
22 12.06 СВ 3 20 км н/о +20.5 +17.7 84 +24 +24 комфорт 1012.4 1011.5
23 12.06 СВ 2 20 км н/о +21.2 +17.4 79 +25 +25 комфорт 1012.7 1011.8
00 13.06 С 3 20 км н/о +22.9 +17.4 71 +28 +28 душно 1013.0 1012.1 +18.0 0.0
01 13.06 СВ 2 20 км н/о +24.2 +18.6 71 +29 +29 душно 1013.0 1012.1
02 13.06 СЗ 2 20 км н/о +23.3 +17.8 71 +29 +29 душно 1012.9 1012.0
03 13.06 Ю 3 20 км н/о +25.5 +19.2 68 +31 +31 очень
душно
1012.7 1011.8
04 13.06 Ю 4 20 км н/о +25.8 +17.5 60 +30 +30 душно 1012.5 1011.6
05 13.06 Ю 4 20 км н/о +25.6 +17.3 60 +30 +30 душно 1012.2 1011.3
07 13.06 Ю 4 20 км н/о +24.0 +19.7 77 +29 +29 душно 1011.9 1011.0
08 13.06 Ю 5 20 км н/о +24.7 +18.6 69 +29 +29 душно 1012.0 1011.1
09 13.06 ЮВ 4 20 км н/о +24.0 +19.3 75 +29 +29 душно 1012.4 1011.5
10 13.06 ЮВ 4 20 км н/о +23.4 +18.7 75 +30 +30 очень
душно
1012.7 1011.8
11 13.06 ЮВ 3 20 км н/о +22.8 +19.0 79 +29 +29 очень
душно
1013.1 1012.2
12 13.06 ЮВ 3 20 км н/о +22.9 +18.7 77 +29 +29 очень
душно
1013.6 1012.7 +26.6
13 13.06 В 2 20 км н/о +22.2 +18.6 80 +27 +27 душно 1013.6 1012.7
14 13.06 В 2 20 км н/о +21.9 +18.5 81 +27 +27 душно 1013.5 1012.6
15 13.06 В 3 20 км н/о +21.7 +18.7 83 +27 +27 душно 1013.5 1012.6
16 13.06 В 3 20 км н/о +21.5 +18.7 84 +26 +26 душно 1013.5 1012.6
17 13.06 В 4 16 км н/о +20.8 +18.4 86 +25 +25 комфорт 1013.0 1012.1
18 13.06 В 3 20 км н/о +20.6 +18.2 86 +25 +25 комфорт 1012.7 1011.8
19 13.06 В 5 20 км н/о +20.7 +17.7 83 +24 +24 комфорт 1012.2 1011.3
20 13.06 В 4 20 км н/о +20.5 +17.7 84 +24 +24 комфорт 1012.5 1011.6
21 13.06 В 3 20 км н/о +21.6 +18.0 80 +26 +26 душно 1012.3 1011.4
22 13.06 В 5 20 км н/о +22.2 +17.8 76 +27 +27 душно 1012.5 1011.6
23 13.06 В 5 20 км н/о +22.4 +18.6 79 +28 +28 душно 1012.3 1011.4
00 14.06 В 7 20 км н/о +23.4 +18.9 76 +30 +30 очень
душно
1011.9 1011.0 +20.4
01 14.06 В 5 20 км в посл. час дождь н/о +23.4 +19.8 80 +30 +30 очень
душно
1012.1 1011.2
02 14.06 В 7 н/о н/о +24.4 +19.5 74 +30 +30 очень
душно
1011.6 1010.7
03 14.06 В 7 20 км {дождь} н/о +24.1 +19.0 73 +29 +29 душно 1011.3 1010.4
04 14.06 В 7 20 км в посл. час дождь н/о +24.3 +19.6 75 +30 +30 очень
душно
1010.8 1009.9
05 14.06 В 7 20 км н/о +24.1 +19.8 77 +29 +29 душно 1010.8 1009.9
06 14.06 В 6 20 км {дождь} н/о +24.0 +19.5 76 +29 +29 душно 1010.0 1009.1 0.0
07 14.06 В 6 20 км слаб. дождь н/о +22.8 +19.4 81 +29 +29 очень
душно
1009.5 1008.6
08 14.06 ЮВ 6 20 км в посл. час дождь н/о +23.1 +17.6 71 +28 +28 душно 1009.5 1008.6
09 14.06 ЮВ 6 13 км слаб. дождь н/о +22.2 +18.4 79 +27 +27 душно 1009.4 1008.5
10 14.06 ЮВ 4 12 км слаб. дождь н/о +20.9 +19.4 91 +26 +26 душно 1009.9 1009.0
11 14.06 В 6 15 км слаб. дождь н/о +20.8 +18.7 88 +25 +25 комфорт 1009.5 1008.6
12 14.06 В 5 8000 м слаб. дождь н/о +20.1 +18.9 93 +23 +23 комфорт 1008.9 1008.0 +25.2 4
13 14.06 В 7 16 км слаб. дождь н/о +19.6 +18.3 92 +22 +22 комфорт 1008.1 1007.2
14 14.06 В 7 20 км слаб. дождь н/о +18.9 +17.1 89 +20 +20 1007.3 1006.4
15 14.06 В 8 20 км слаб. дождь н/о +19.2 +16.8 86 +20 +20 1006.3 1005.4
16 14.06 В 6 10 км слаб. дождь н/о +18.3 +16.6 90 +18 +18 1005.1 1004.2
17 14.06 В 6 11 км слаб. дождь н/о +18.0 +16.0 88 +17 +17 1004.1 1003.2
18 14.06 В 7 6000 м слаб. дождь н/о +17.5 +16.2 92 +17 +17 1003.3 1002.4 7
19 14.06 В 8 5000 м дождь н/о +17.0 +16.0 94 +16 +16 1003.2 1002.3
20 14.06 В 7 5000 м слаб. дождь н/о +16.9 +16.4 97 +16 +16 1002.3 1001.4
21 14.06 В 6 20 км слаб. дождь н/о +17.9 +16.1 89 +17 +17 1001.1 1000.2
22 14.06 В 7 20 км в посл. час дождь н/о +19.0 +15.5 80 +20 +20 999.9 999.0
23 14.06 В 8 20 км н/о +19.8 +15.0 74 +21 +21 комфорт 998.1 997.2
00 15.06 В 9 20 км {дождь} н/о +21.1 +15.0 68 +24 +24 комфорт 996.5 995.6 +16.7 14
01 15.06 В 10 20 км слаб. дождь н/о +21.8 +15.4 67 +25 +25 комфорт 995.5 994.6
02 15.06 В 8 20 км слаб. дождь н/о +22.0 +15.8 68 +26 +26 душно 995.0 994.1
03 15.06 В 9 9000 м слаб. дождь н/о +20.0 +17.4 85 +22 +22 комфорт 993.8 992.9
04 15.06 В 11 20 км слаб. дождь н/о +22.0 +17.6 76 +27 +27 душно 991.8 990.9
05 15.06 В 12 20 км слаб. дождь н/о +21.5 +17.9 80 +26 +26 душно 990.5 989.6
06 15.06 В 12 20 км слаб. дождь н/о +21.4 +18.6 84 +26 +26 душно 990.3 989.4 5
07 15.06 В 10 20 км слаб. дождь н/о +21.7 +18.7 83 +27 +27 душно 988.8 987.9
08 15.06 В 9 5000 м слаб. дождь н/о +20.8 +19.5 92 +25 +25 комфорт 989.2 988.3
09 15.06 В 8 4000 м дождь н/о +21.4 +20.7 96 +27 +27 душно 989.0 988.1
10 15.06 Ю 8 15 км слаб. дождь н/о +22.4 +20.7 90 +29 +29 очень
душно
988.3 987.4
11 15.06 Ю 8 19 км н/о +22.5 +20.4 88 +29 +29 очень
душно
989.2 988.3
12 15.06 Ю 7 17 км {дождь} н/о +22.5 +20.4 88 +29 +29 очень
душно
989.8 988.9 +22.9 8
13 15.06 Ю 6 18 км в посл. час дождь н/о +22.5 +20.4 88 +29 +29 очень
душно
989.3 988.4
14 15.06 ЮЗ 4 17 км слаб. дождь н/о +21.8 +20.1 90 +27 +27 душно 989.3 988.4
15 15.06 З 5 20 км слаб. дождь н/о +19.7 +18.2 91 +22 +22 комфорт 989.7 988.8
16 15.06 З 6 20 км в посл. час дождь н/о +20.0 +17.6 86 +23 +23 комфорт 990.7 989.8
17 15.06 З 5 20 км слаб. дождь н/о +20.2 +17.4 84 +23 +23 комфорт 991.6 990.7
18 15.06 З 5 20 км в посл. час дождь н/о +20.0 +17.6 86 +23 +23 комфорт 992.7 991.8 3
19 15.06 З 6 20 км н/о +20.3 +16.9 81 +23 +23 комфорт 993.8 992.9
20 15.06 З 5 20 км н/о +20.1 +17.1 83 +23 +23 комфорт 994.7 993.8
21 15.06 З 6 20 км н/о +20.4 +16.8 80 +23 +23 комфорт 995.8 994.9
22 15.06 З 7 20 км н/о +21.4 +16.8 75 +25 +25 комфорт 996.5 995.6
23 15.06 З 6 20 км н/о +21.6 +16.8 74 +26 +26 душно 997.4 996.5
00 16.06 З 6 20 км н/о +22.7 +17.2 71 +28 +28 душно 998.0 997.1 +19.6 3
01 16.06 З 7 20 км н/о +23.2 +17.2 69 +28 +28 душно 998.1 997.2
02 16.06 З 9 20 км н/о +24.2 +16.7 63 +28 +28 душно 999.2 998.3
03 16.06 З 8 20 км н/о +23.7 +15.8 61 +27 +27 жарко 999.3 998.4
04 16.06 СЗ 6 20 км н/о +23.9 +15.9 61 +27 +27 жарко 999.9 999.0
05 16.06 СЗ 5 20 км н/о +23.5 +15.3 60 +26 +26 жарко 1000.6 999.7
06 16.06 СЗ 7 20 км н/о +23.3 +15.6 62 +28 +28 душно 1001.0 1000.1
07 16.06 СЗ 7 20 км н/о +22.6 +15.2 63 +26 +26 жарко 1001.9 1001.0
08 16.06 З 6 20 км н/о +22.2 +16.0 68 +26 +26 душно 1001.9 1001.0
09 16.06 СЗ 4 20 км н/о +22.0 +15.6 67 +26 +26 душно 1003.0 1002.1
10 16.06 СЗ 5 20 км н/о +21.2 +15.1 68 +24 +24 комфорт 1003.9 1003.0
11 16.06 СЗ 5 20 км н/о +20.5 +14.4 68 +23 +23 комфорт 1005.0 1004.1
12 16.06 СЗ 6 20 км н/о +20.1 +13.8 67 +22 +22 комфорт 1006.3 1005.4 +25.5
13 16.06 З 7 20 км н/о +19.8 +14.6 72 +21 +21 комфорт 1006.4 1005.5
14 16.06 З 8 20 км н/о +19.5 +14.5 73 +21 +21 комфорт 1006.9 1006.0
15 16.06 З 7 20 км н/о +19.2 +14.5 74 +20 +20 1007.3 1006.4
16 16.06 З 6 20 км н/о +18.4 +15.1 81 +18 +18 1007.3 1006.4
17 16.06 З 6 20 км н/о +18.5 +14.6 78 +19 +19 1007.4 1006.5
18 16.06 З 6 20 км н/о +18.5 +14.0 75 +19 +19 1007.6 1006.7
19 16.06 З 6 20 км н/о +18.5 +14.4 77 +19 +19 1008.5 1007.6
20 16.06 З 6 20 км н/о +18.4 +14.7 79 +18 +18 1009.5 1008.6
21 16.06 СЗ 5 20 км н/о +19.3 +13.7 70 +20 +20 1009.8 1008.9
22 16.06 СЗ 5 20 км н/о +20.0 +13.5 66 +22 +22 комфорт 1010.3 1009.4
23 16.06 СЗ 6 20 км н/о +21.1 +13.8 63 +24 +24 комфорт 1010.5 1009.6
00 17.06 З 5 20 км н/о +22.4 +13.5 57 +25 +25 комфорт 1010.6 1009.7 +18.3
01 17.06 З 8 20 км н/о +23.0 +13.8 56 +26 +26 жарко 1010.9 1010.0
02 17.06 З 7 20 км н/о +23.0 +15.1 61 +27 +27 душно 1010.6 1009.7
03 17.06 З 7 20 км н/о +24.3 +15.5 58 +27 +27 жарко 1010.8 1009.9
04 17.06 З 6 20 км н/о +24.9 +15.8 57 +28 +28 жарко 1010.9 1010.0
05 17.06 З 7 20 км н/о +25.2 +15.8 56 +28 +28 жарко 1010.4 1009.5
06 17.06 З 6 20 км н/о +25.4 +14.5 51 +28 +28 жарко 1010.1 1009.2
07 17.06 З 6 20 км н/о +25.4 +14.8 52 +28 +28 жарко 1010.1 1009.2
08 17.06 З 5 20 км н/о +24.8 +15.2 55 +28 +28 жарко 1010.1 1009.2
09 17.06 З 4 20 км н/о +24.0 +15.2 58 +27 +27 жарко 1010.5 1009.6
10 17.06 З 3 20 км н/о +22.4 +15.8 66 +26 +26 жарко 1011.0 1010.1
11 17.06 ЮЗ 2 20 км н/о +20.3 +16.8 80 +24 +24 комфорт 1011.2 1010.3
12 17.06 ЮЗ 1 20 км н/о +19.0 +16.4 85 +22 +22 комфорт 1011.8 1010.9 +26.1
13 17.06 З 2 20 км н/о +19.8 +16.5 81 +23 +23 комфорт 1012.3 1011.4
14 17.06 СЗ 3 20 км н/о +20.1 +16.4 79 +23 +23 комфорт 1012.3 1011.4
15 17.06 Ю 1 20 км н/о +17.6 +16.0 90 +19 +19 1012.5 1011.6
16 17.06 З 1 20 км н/о +18.4 +16.2 87 +20 +20 1012.6 1011.7
18 17.06 Ю 1 20 км н/о +17.2 +15.7 91 +19 +19 1012.7 1011.8
19 17.06 ЮВ 1 20 км н/о +16.9 +15.8 93 +18 +18 1012.9 1012.0
20 17.06 В 1 20 км н/о +17.3 +16.0 92 +19 +19 1012.8 1011.9
21 17.06 З 1 20 км н/о +19.2 +17.2 88 +23 +23 комфорт 1013.1 1012.2
22 17.06 СВ 2 20 км н/о +20.3 +16.6 79 +24 +24 комфорт 1013.4 1012.5
23 17.06 С 2 20 км н/о +20.8 +16.6 77 +25 +25 комфорт 1013.6 1012.7
00 18.06 СВ 1 20 км н/о +22.7 +16.5 68 +27 +27 душно 1013.1 1012.2 +16.7
01 18.06 СВ 1 20 км н/о +23.8 +17.1 66 +28 +28 душно 1012.9 1012.0
02 18.06 З 3 20 км н/о +23.0 +16.8 68 +28 +28 душно 1012.9 1012.0
03 18.06 З 2 20 км н/о +25.1 +18.1 65 +29 +29 душно 1012.4 1011.5
04 18.06 В 3 20 км н/о +24.7 +17.7 65 +29 +29 душно 1011.6 1010.7
05 18.06 Ю 3 20 км н/о +25.0 +19.4 71 +30 +30 душно 1011.5 1010.6
06 18.06 Ю 3 20 км н/о +24.4 +19.0 72 +29 +29 душно 1011.2 1010.3
07 18.06 Ю 4 20 км н/о +23.9 +18.1 70 +28 +28 душно 1010.8 1009.9
08 18.06 Ю 3 20 км н/о +23.4 +18.7 75 +30 +30 очень
душно
1010.6 1009.7
09 18.06 Ю 3 20 км н/о +23.3 +18.0 72 +29 +29 душно 1010.8 1009.9
10 18.06 Ю 2 20 км н/о +22.1 +18.1 78 +27 +27 душно 1010.9 1010.0
11 18.06 Ю 3 20 км н/о +21.3 +18.5 84 +26 +26 душно 1010.6 1009.7
12 18.06 Ю 2 20 км н/о +21.0 +18.8 87 +26 +26 душно 1011.1 1010.2 +25.7
13 18.06 Ю 2 20 км н/о +20.2 +18.7 91 +24 +24 комфорт 1011.1 1010.2
14 18.06 Ю 2 20 км н/о +20.1 +18.8 92 +24 +24 комфорт 1010.8 1009.9
15 18.06 СВ 1 20 км н/о +20.0 +18.7 92 +24 +24 комфорт 1010.2 1009.3
16 18.06 В 1 20 км н/о +19.2 +18.4 95 +22 +22 комфорт 1009.9 1009.0
17 18.06 В 1 20 км н/о +19.0 +18.7 98 +22 +22 комфорт 1009.4 1008.5
18 18.06 В 1 18 км н/о +18.3 +18.0 98 +20 +20 1009.3 1008.4
19 18.06 В 1 20 км н/о +18.0 +17.8 99 +19 +19 1009.3 1008.4
20 18.06 В 2 14 км н/о +17.9 +17.7 99 +19 +19 1009.1 1008.2
21 18.06 СВ 2 15 км н/о +19.7 +18.5 93 +23 +23 комфорт 1009.1 1008.2
22 18.06 С 2 11 км н/о +21.0 +18.0 83 +26 +26 душно 1009.6 1008.7

 

Местоположение метеостанции Ирако (Япония): широта 34.63 долгота 137.10 высота над уровнем моря 8 м.

В архиве по умолчанию представлена погода в Ирако за последнюю неделю. Архивные данные за месяц целиком и за предыдущие месяцы, начиная с января 2011 года, Вы можете получить, выбрав интересующий диапазон дат из раскрывающегося списка и нажав кнопку "Ввод!".


*Определитесь, кто Вы:
робот инопланетянин человек

Внимание! Время в таблицах - всемирное. Для получения местного времени необходимо прибавить поправку, которая равна 9 ч.

Смотрите также архив погоды в соседних городах и на ближайших метеорологических станциях:

Погода в Цу (Япония) (55 км)
Погода в Хамамацу (Япония) (57 км)
Погода в Йоккаити (Япония) (58 км)
Погода в Нагоя (Япония) (61 км)
Погода в Уэно (Япония) (88 км)
Погода в Гифу (Япония) (91 км)
Погода в Омаэдзаки (Япония) (102 км)
Погода в Овасе (Япония) (103 км)
Погода в Хиконе (Япония) (106 км)
Погода в Наре (Япония) (116 км)

Пояснения к столбцам:

Ветер - указаны скорость ветра в м/с - средняя за 10 мин, порывы в срок и между сроками (в фигурных скобках) и направление, откуда дует ветер: С - северный, СВ - северо-восточный, В - восточный, ЮВ - юго-восточный, Ю - южный, ЮЗ - юго-западный, З - западный, СЗ - северо-западный.
Видимость - горизонтальная дальность видимости в метрах или километрах. При видимости от 1 до 10 км при отсутствии осадков обычно наблюдается дымка, при ухудшении видимости до 1 км и менее - туман. В сухую погоду видимость может ухудшаться дымом, пылью или мглою.
Явления - указаны атмосферные явления, наблюдавшиеся в срок или в последний час перед сроком; фигурными скобками обозначены явления, наблюдавшиеся между сроками (за 1-3 часа до срока); квадратными скобками обозначены град или гололедные отложения с указанием их диаметра в мм.
Облачность - указаны через наклонную черту общая и нижняя облачность в баллах и высота нижней границы облаков в метрах; квадратными скобками обозначены формы облаков: Ci - перистые, Cs - перисто-слоистые, Cc - перисто-кучевые, Ac - высококучевые, As - высокослоистые, Sc - слоисто-кучевые, Ns - слоисто-дождевые, Cu - кучевые, Cb - кучево-дождевые. Подробнее классификацию облаков см. в Атласе облаков (PDF).
T - Температура воздуха - температура, измеренная на высоте 2 м над землей.
Td - Температура точки росы - температура, при понижении до которой содержащийся в воздухе водяной пар достигнет насыщения.
f - Относительная влажность воздуха - влажноcть воздуха, измеренная на высоте 2 м над землей.
Te - Эффективная температура - температура, которую ощущает одетый по сезону человек в тени. Характеристика душности погоды. При расчете учитывается влияние влажности воздуха и скорости ветра на теплоощущения человека.
Tes - Эффективная температура на солнце - температура, которую ощущает человек, с поправкой на солнечный нагрев. Характеристика знойности погоды. Зависит от высоты солнца над горизонтом, облачности и скорости ветра. Ночью, в пасмурную погоду, а также при ветре 12 м/с и более поправка равна нулю.
P - Атмосферное давление - приведенное к уровню моря атмосферное давление.
Po - Атмосферное давление - измеренное на уровне метеостанции атмосферное давление.
Tmin - Минимальная температура - минимум температуры воздуха на высоте 2 м над землей.
Tmax - Максимальная температура - максимум температуры воздуха на высоте 2 м над землей.
R - Количество осадков - Количество выпавших осадков за период времени, мм. При наведении курсора мыши на число - период времени, за который выпало указанное количество осадков.
R24 - Количество осадков - Количество выпавших осадков за 24 часа, мм.
S - Снежный покров - Высота снежного покрова, см. При наведении курсора мыши на число - состояние снежного покрова и степень покрытия местности в баллах.